DECAYED

OBJECT K, 44395 (Decayed)

Orbit data source: Space-Track

You're viewing an Uncataloged Satellite

Recently launched and/or uncataloged satellites may have evolving metadata. Metadata may include but not limited to: Owner, Maufacturer, Bus, Motor, and Mission.

OBJECT K, 44395 was a satellite in LEO that was launched on Fri, 05 Jul 2019 UTC via a SOYUZ-2-1B launch vehicle from the Vostochny Cosmodrome (VOSTO). Unknown objects in Earth's orbit typically refer to objects detected orbiting the Earth but have not yet been identified or cataloged. These objects could be anything from previously untracked satellites, spent rocket stages, debris from satellite collisions, or even natural meteoroids temporarily captured by Earth's gravity. This object's orbit decayed before it could be identified.

Not visible in the next 10 days
Identifier
44395, 2019-038K
Orbit
Decayed
Last TLE update
3 weeks ago
Origin
Flag of TBDUTE (TBD)
Manufacturer
UTE/YUZGU
Mission
Decayed Amateur Technology
Bus & Motor
CUBESAT 3U, Unknown motor
Mass
4 kg wet, 4 kg dry
Launch date (UTC)
2019-07-05 (6 years ago)
Launch vehicle
SOYUZ-2-1B
Launch site
Vostochny Cosmodrome (VOSTO)
Object type
Unknown
Shape & HBR
Box + 4 Ant, Unknown HBR
Radar Cross Section
0.031 m², Medium (>0.1 m² and < 1m²)

Expand to show TLE details & history

TLE from 3 weeks ago
0 OBJECT K
1 44395U 19038K   25160.20732978  .13168537  27998-5  19282-3 0  9997
2 44395  97.6770 188.4538 0011493 246.3742 113.6355 16.48176738329612
Epoch: 2025-06-09T04:58Z
TLE epoch observation values (Epoch: 2025-06-09T04:58:33.292Z)
Latitude
-0.00003°
Longitude
-144.00677°
Altitude
150.408 km
Speed
7.814 km/s
True Right ascension
12h 33m 48s
True Declination
0° 00' 00"
Sunlit
Object was in full shadow at epoch
Visualization orbit readout
Visualization observer readout
Orbital elements
Apogee altitude
148.443 km
Perigee altitude
133.459 km
Semi-major axis
6,519.088 km
Eccentricity
0.00115
Inclination
97.677°
RAAN
188.4538°
Arg. of periapsis
246.3742°
True anomaly
Unknown
Mean anomaly
113.6355°
Eccentric anomaly
Unknown
Mean motion
4.12347 °/min
Orbital period
87.31 mins
BSTAR
0.00019282
Loading maneuver chart data...
Loading SW <> Apogee altitude chart data...

OBJECT K Visibility

Observer location: undefined°, undefined°

This satellite is decayed
Span
Click to sort rows by Start time (UTC) header in descending order
Start Az.
Max El. time (UTC)
Max El. Az.
Max El.
End time (UTC)
End Az.
|